TimeGMT,TemperatureF,Dew PointF,Humidity,Sea Level PressureIn,VisibilityMPH,Wind Direction,Wind SpeedMPH,Gust SpeedMPH,PrecipitationIn,Events,Conditions,WindDirDegrees,DateUTC
12:20 AM,32.0,30.2,93,30.12,-9999.0,West,5.8,-,N/A,,Clear,280,2012-12-08 00:20:00
12:50 AM,30.2,28.4,93,30.15,-9999.0,WSW,4.6,-,N/A,,Clear,250,2012-12-08 00:50:00
1:20 AM,33.8,30.2,87,30.15,-9999.0,West,4.6,-,N/A,,Clear,270,2012-12-08 01:20:00
1:50 AM,32.0,28.4,87,30.15,-9999.0,West,4.6,-,N/A,,Clear,260,2012-12-08 01:50:00
2:20 AM,30.2,28.4,93,30.15,-9999.0,SW,4.6,-,N/A,,Clear,230,2012-12-08 02:20:00
3:20 AM,28.4,26.6,93,30.15,6.2,West,2.3,-,N/A,,Unknown,260,2012-12-08 03:20:00
3:50 AM,28.4,26.6,93,30.18,6.2,WSW,6.9,-,N/A,,Unknown,250,2012-12-08 03:50:00
4:20 AM,28.4,24.8,86,30.18,-9999.0,SSW,3.5,-,N/A,,Clear,210,2012-12-08 04:20:00
4:50 AM,30.2,28.4,93,30.18,-9999.0,West,2.3,-,N/A,,Clear,260,2012-12-08 04:50:00
5:20 AM,30.2,28.4,93,30.18,-9999.0,West,2.3,-,N/A,,Clear,260,2012-12-08 05:20:00
5:50 AM,28.4,26.6,93,30.18,-9999.0,Calm,Calm,-,N/A,,Clear,0,2012-12-08 05:50:00
6:20 AM,30.2,28.4,93,30.18,6.2,Calm,Calm,-,N/A,,Partly Cloudy,0,2012-12-08 06:20:00
6:50 AM,30.2,30.2,100,30.18,-9999.0,Calm,Calm,-,N/A,,Clear,0,2012-12-08 06:50:00
7:20 AM,32.0,32.0,100,30.18,6.2,Calm,Calm,-,N/A,,Mostly Cloudy,0,2012-12-08 07:20:00
7:50 AM,33.8,32.0,93,30.15,6.2,Variable,3.5,-,N/A,,Mostly Cloudy,0,2012-12-08 07:50:00
8:20 AM,33.8,32.0,93,30.15,6.2,NNE,2.3,-,N/A,,Mostly Cloudy,30,2012-12-08 08:20:00
8:50 AM,33.8,33.8,100,30.15,6.2,Calm,Calm,-,N/A,,Mostly Cloudy,0,2012-12-08 08:50:00
9:20 AM,33.8,32.0,93,30.15,6.2,Calm,Calm,-,N/A,Rain,Light Rain,0,2012-12-08 09:20:00
9:50 AM,35.6,33.8,93,30.15,6.2,Calm,Calm,-,N/A,,Mostly Cloudy,0,2012-12-08 09:50:00
10:20 AM,35.6,33.8,93,30.15,5.6,NNE,4.6,-,N/A,,Mostly Cloudy,30,2012-12-08 10:20:00
10:50 AM,37.4,35.6,93,30.12,5.0,NNE,2.3,-,N/A,,Mostly Cloudy,30,2012-12-08 10:50:00
11:20 AM,41.0,39.2,93,30.12,5.6,Variable,2.3,-,N/A,,Mostly Cloudy,0,2012-12-08 11:20:00
11:50 AM,42.8,42.8,100,30.12,6.2,West,6.9,-,N/A,,Overcast,260,2012-12-08 11:50:00
12:20 PM,44.6,44.6,100,30.09,6.2,WSW,15.0,-,N/A,,Overcast,250,2012-12-08 12:20:00
12:50 PM,46.4,44.6,93,30.09,6.2,WSW,11.5,-,N/A,,Overcast,250,2012-12-08 12:50:00
1:20 PM,48.2,46.4,93,30.09,6.2,WSW,9.2,-,N/A,,Mostly Cloudy,240,2012-12-08 13:20:00
1:50 PM,48.2,46.4,93,30.09,6.2,West,4.6,-,N/A,,Mostly Cloudy,270,2012-12-08 13:50:00
2:20 PM,48.2,46.4,93,30.09,6.2,West,9.2,-,N/A,,Mostly Cloudy,280,2012-12-08 14:20:00
2:50 PM,48.2,46.4,93,30.09,6.2,West,13.8,-,N/A,,Mostly Cloudy,260,2012-12-08 14:50:00
3:20 PM,48.2,46.4,93,30.09,6.2,West,13.8,-,N/A,,Scattered Clouds,260,2012-12-08 15:20:00
3:50 PM,48.2,46.4,93,30.06,6.2,West,11.5,-,N/A,,Mostly Cloudy,260,2012-12-08 15:50:00
4:20 PM,48.2,46.4,93,30.06,3.7,WSW,12.7,-,N/A,Rain,Light Rain,250,2012-12-08 16:20:00
4:50 PM,48.2,46.4,93,30.06,6.2,WSW,10.4,-,N/A,,Overcast,250,2012-12-08 16:50:00
5:20 PM,48.2,46.4,93,30.09,4.3,West,6.9,-,N/A,Rain,Light Rain,280,2012-12-08 17:20:00
5:50 PM,46.4,44.6,93,30.06,6.2,WSW,11.5,-,N/A,,Overcast,250,2012-12-08 17:50:00
6:20 PM,46.4,44.6,93,30.06,6.2,WSW,15.0,-,N/A,,Overcast,240,2012-12-08 18:20:00
6:50 PM,46.4,44.6,93,30.06,6.2,WSW,12.7,-,N/A,,Overcast,250,2012-12-08 18:50:00
7:20 PM,46.4,42.8,87,30.06,6.2,WSW,17.3,-,N/A,,Mostly Cloudy,250,2012-12-08 19:20:00
7:50 PM,46.4,42.8,87,30.06,3.7,West,12.7,-,N/A,Rain,Rain,260,2012-12-08 19:50:00
8:20 PM,46.4,42.8,87,30.04,6.2,WSW,17.3,-,N/A,,Mostly Cloudy,250,2012-12-08 20:20:00
8:50 PM,46.4,42.8,87,30.04,6.2,WSW,17.3,-,N/A,,Mostly Cloudy,240,2012-12-08 20:50:00
9:20 PM,46.4,42.8,87,30.04,6.2,WSW,16.1,-,N/A,,Mostly Cloudy,240,2012-12-08 21:20:00
9:50 PM,48.2,42.8,82,30.01,6.2,WSW,21.9,-,N/A,,Mostly Cloudy,240,2012-12-08 21:50:00
10:20 PM,48.2,42.8,82,30.01,5.0,WSW,20.7,-,N/A,Rain,Light Rain,240,2012-12-08 22:20:00
10:50 PM,46.4,42.8,87,30.01,5.0,WSW,18.4,-,N/A,Rain,Light Rain,240,2012-12-08 22:50:00
11:20 PM,46.4,42.8,87,29.98,5.0,West,15.0,-,N/A,Rain,Light Rain,260,2012-12-08 23:20:00
11:50 PM,46.4,42.8,87,29.98,6.2,WSW,13.8,-,N/A,,Mostly Cloudy,250,2012-12-08 23:50:00